Total_Precipitation_Accumulation
2.22 2.43 2.79 3.16 3.40 3.57 3.68 4.00 4.22 3.97 3.53 3.16 2.71 2.57 2.49 2.27 2.07 1.97 1.82 2.00 1.96 2.19 2.52 2.29 2.56 2.22 2.23 2.41 2.46 2.71 2.65 2.33 2.25 2.66 2.71 2.14 1.72 1.77 1.66 1.63 1.84 1.83 1.94
1.87 1.93 2.06 2.37 2.53 2.78 3.07 3.42 3.67 3.50 2.94 2.73 2.57 2.47 2.42 2.24 2.24 2.15 2.16 1.93 1.93 2.16 2.20 2.55 2.35 2.37 2.47 2.52 2.63 2.78 2.77 2.47 2.37 2.78 3.13 2.75 2.65 2.30 1.54 1.62 1.76 1.78 2.02
1.58 1.66 1.68 1.77 2.07 2.65 2.87 2.76 2.99 3.16 2.88 2.76 2.68 2.61 2.58 2.40 2.49 2.45 2.35 1.97 1.83 1.84 2.03 2.22 2.22 2.44 2.24 2.58 2.82 2.77 2.88 2.86 2.66 2.70 3.10 3.11 2.96 2.48 1.93 1.56 1.58 1.81 2.20
1.16 1.35 1.34 1.43 1.66 1.96 2.24 2.59 2.89 2.97 2.86 2.71 2.48 2.36 2.20 2.14 2.17 2.18 2.19 2.07 1.95 1.82 1.91 2.06 2.33 2.49 2.23 2.76 2.38 2.51 2.76 2.91 2.72 2.68 2.49 2.56 2.77 2.84 2.62 2.11 1.68 1.69 1.92
0.73 0.91 1.06 1.19 1.27 1.41 1.80 2.36 2.81 3.02 2.90 2.56 2.40 2.44 2.27 2.21 2.18 2.10 2.30 2.16 2.00 1.84 1.77 2.05 2.30 2.42 2.30 2.46 2.52 2.80 2.69 2.63 2.61 2.64 2.66 2.76 2.73 2.49 2.65 2.58 2.27 1.99 1.56
0.54 0.62 0.76 0.99 1.13 1.21 1.47 1.91 2.32 2.55 2.61 2.48 2.37 2.43 2.45 2.40 2.26 2.11 2.12 1.97 1.93 1.88 1.81 2.01 2.31 2.27 2.30 2.47 2.46 2.60 2.60 2.65 2.73 2.56 2.48 2.71 2.69 2.59 2.66 2.36 2.18 2.14 1.55
0.52 0.64 0.73 0.87 0.90 0.95 1.18 1.49 1.71 1.91 2.13 2.28 2.34 2.30 2.43 2.45 2.23 2.02 2.03 2.00 1.86 1.88 1.95 2.09 2.37 2.28 2.33 2.38 2.62 2.71 2.66 2.64 2.66 2.50 2.35 2.31 2.18 2.32 2.49 2.55 2.25 2.03 1.56
0.52 0.64 0.78 0.86 0.80 0.84 1.04 1.24 1.44 1.68 1.95 2.11 2.18 2.16 2.13 2.04 1.99 2.10 2.00 1.97 1.92 1.87 1.82 1.95 1.99 1.97 2.05 2.13 2.63 2.50 2.48 2.59 2.51 2.23 2.49 2.36 2.00 2.11 2.27 2.53 2.80 2.54 2.07
0.65 0.73 0.88 0.92 0.81 0.85 1.03 1.15 1.34 1.54 1.68 1.94 2.10 2.03 2.01 1.88 1.86 1.91 1.87 1.81 1.94 1.88 1.81 1.76 1.80 1.85 2.03 2.23 2.44 2.34 2.44 2.65 2.50 2.39 2.53 2.32 2.07 2.04 1.99 2.30 2.74 3.06 2.79
0.82 0.93 0.93 0.95 0.90 0.91 1.04 1.13 1.30 1.42 1.45 1.60 1.69 1.58 1.77 1.81 1.92 1.90 1.80 1.73 1.74 1.78 1.81 1.84 1.84 1.93 2.02 2.24 2.43 2.42 2.57 2.67 2.54 2.53 2.59 2.42 2.18 2.27 2.11 2.16 2.48 2.78 3.00
0.82 0.94 0.90 0.89 0.86 0.91 0.99 1.03 1.18 1.30 1.34 1.48 1.56 1.62 1.71 1.77 1.81 1.83 1.80 1.80 1.81 1.85 1.86 1.94 1.97 1.98 2.01 2.20 2.39 2.28 2.52 2.66 2.71 2.53 2.49 2.45 2.46 2.44 2.29 2.38 2.51 2.59 2.89
0.64 0.86 0.93 0.96 0.77 0.83 0.90 0.96 1.08 1.22 1.28 1.46 1.59 1.65 1.82 1.86 1.78 1.79 1.97 1.97 1.95 1.94 1.94 2.02 2.11 2.08 2.10 2.25 2.24 2.09 2.21 2.42 2.61 2.82 2.95 2.70 2.68 2.67 2.49 2.52 2.53 2.58 2.80
0.67 0.82 0.91 0.84 0.76 0.78 0.85 0.90 1.00 1.13 1.24 1.38 1.54 1.74 1.82 1.86 1.97 2.11 2.27 2.31 2.23 2.18 2.19 2.27 2.21 2.23 2.28 2.27 2.18 2.20 2.23 2.32 2.40 2.66 2.91 2.89 3.02 2.78 2.77 2.70 2.58 2.56 2.55
0.64 0.65 0.82 0.87 0.79 0.77 0.80 0.85 0.99 1.13 1.30 1.56 1.74 1.87 2.04 2.16 2.22 2.18 2.26 2.30 2.32 2.34 2.36 2.42 2.35 2.31 2.34 2.37 2.36 2.34 2.30 2.36 2.34 2.40 2.52 2.63 2.91 2.88 2.91 2.75 2.76 2.85 2.86
0.62 0.76 0.89 1.05 1.02 0.94 0.88 0.92 1.15 1.37 1.59 1.86 1.95 1.99 2.07 2.18 2.33 2.46 2.48 2.47 2.46 2.41 2.58 2.57 2.49 2.51 2.52 2.32 2.44 2.64 2.59 2.64 2.44 2.36 2.33 2.30 2.53 2.61 2.68 2.43 2.58 2.84 2.88
0.73 0.88 1.03 1.17 1.26 1.28 1.26 1.29 1.45 1.71 2.02 2.32 2.44 2.56 2.62 2.69 2.75 2.79 2.82 2.87 2.82 2.76 2.69 2.58 2.65 2.65 2.42 2.55 2.63 2.53 2.54 2.73 2.72 2.58 2.52 2.39 2.33 2.33 2.37 2.39 2.47 2.60 2.60
0.88 1.00 1.11 1.20 1.34 1.37 1.45 1.63 1.81 2.05 2.30 2.48 2.59 2.70 2.79 2.92 3.03 3.05 3.07 2.96 2.90 2.83 2.72 2.71 2.77 2.70 2.73 2.70 2.48 2.32 2.31 2.40 2.48 2.54 2.52 2.25 2.12 2.33 2.24 2.41 2.44 2.25 2.17
1.02 1.07 1.13 1.26 1.35 1.47 1.62 1.79 1.90 2.07 2.41 2.63 2.72 2.76 2.79 2.87 3.04 3.19 3.12 2.99 2.97 2.91 2.86 2.79 2.67 2.60 2.50 2.54 2.31 2.28 2.17 2.11 2.05 2.17 2.30 2.26 2.16 2.19 2.29 2.23 2.00 1.80 1.80
1.00 1.08 1.20 1.30 1.44 1.51 1.56 1.57 1.68 1.89 2.12 2.35 2.52 2.54 2.68 2.85 2.94 2.97 2.99 3.07 3.05 2.85 2.69 2.57 2.53 2.49 2.54 2.74 2.47 2.32 2.10 2.09 1.95 1.94 1.94 1.98 1.86 2.01 2.09 1.99 1.78 1.64 1.59
1.04 1.14 1.30 1.39 1.39 1.42 1.45 1.53 1.68 1.91 2.11 2.32 2.51 2.68 2.81 2.95 2.98 3.03 3.13 3.16 3.12 3.07 3.03 2.90 2.80 2.69 2.65 2.84 2.58 2.37 2.13 2.12 2.06 2.04 2.01 2.08 1.85 1.78 1.72 1.64 1.66 1.49 1.40
1.04 1.13 1.28 1.44 1.46 1.45 1.62 1.79 1.92 2.08 2.25 2.37 2.45 2.59 2.77 3.00 3.24 3.41 3.32 3.29 3.24 3.15 2.98 2.80 2.65 2.59 2.59 2.56 2.36 2.20 1.93 1.88 1.93 1.81 1.70 1.74 1.77 1.56 1.40 1.38 1.36 1.31 1.36
0.97 1.15 1.27 1.40 1.55 1.66 1.82 1.99 2.02 2.09 2.29 2.49 2.57 2.62 2.81 2.88 3.02 3.27 3.28 3.20 3.17 3.08 2.97 2.89 2.80 2.70 2.55 2.31 2.08 1.93 1.79 1.77 1.73 1.78 1.78 1.82 1.84 1.58 1.42 1.28 1.16 1.21 1.21
1.05 1.16 1.28 1.41 1.52 1.71 1.90 2.07 2.16 2.23 2.32 2.45 2.61 2.77 2.87 2.92 3.01 3.18 3.24 3.22 3.13 2.99 2.85 2.71 2.50 2.47 2.51 2.43 2.18 1.88 1.69 1.66 1.58 1.75 2.05 2.05 1.98 1.76 1.48 1.37 1.37 1.30 1.18
1.26 1.30 1.38 1.46 1.54 1.64 1.84 2.05 2.18 2.24 2.35 2.42 2.47 2.62 2.75 2.87 3.02 3.04 2.91 2.80 2.66 2.58 2.53 2.37 2.25 2.27 2.33 2.22 2.12 1.95 1.81 1.76 1.65 1.69 1.96 2.11 2.11 1.98 1.78 1.68 1.59 1.38 1.31
1.33 1.38 1.46 1.56 1.59 1.63 1.72 1.96 2.17 2.27 2.32 2.44 2.50 2.48 2.48 2.56 2.72 2.79 2.75 2.62 2.44 2.30 2.23 2.09 2.07 2.07 2.05 2.06 2.07 1.90 1.77 1.73 1.78 1.87 2.06 2.20 2.29 2.28 2.22 2.13 2.04 1.92 1.77
1.44 1.47 1.51 1.54 1.57 1.67 1.79 1.90 2.17 2.45 2.53 2.52 2.39 2.30 2.21 2.20 2.25 2.26 2.30 2.40 2.27 2.24 2.09 1.95 1.86 1.80 1.83 1.85 1.78 1.68 1.63 1.67 1.80 1.85 1.95 2.19 2.37 2.44 2.53 2.57 2.45 2.23 2.05